Location: Asheville, NC
(35.6000°N, 82.5500°W)
Time: 20:08:46
(UTC-04:00)

FO-29 - Visible Passes

Search period start: 25 April 2018 00:00
Search period end: 05 May 2018 00:00
Orbit: 801 x 1321 km, 98.5° (Epoch: 24 April)

Date Brightness Start Highest point End Pass type
(mag) Time Alt. Az. Time Alt. Az. Time Alt. Az.
25 Apr 10.0 21:11:50 10° N 21:19:02 74° WNW 21:25:22 10° SSW visible
25 Apr 12.7 23:00:16 10° NW 23:02:35 12° NW 23:04:49 10° WNW visible
26 Apr 11.6 22:02:34 10° N 22:08:37 31° WNW 22:14:07 10° WSW visible
27 Apr 9.9 21:06:58 10° N 21:14:06 79° WNW 21:20:19 10° SSW visible
27 Apr 12.6 22:55:06 10° NNW 22:57:43 12° NW 23:00:15 10° WNW visible
28 Apr 11.5 21:57:39 10° N 22:03:43 32° WNW 22:09:12 10° SW visible
29 Apr 9.8 21:02:07 10° NNE 21:09:08 84° WNW 21:15:15 10° SSW visible
29 Apr 12.6 22:49:58 10° NNW 22:52:51 13° NW 22:55:37 10° W visible
30 Apr 11.4 21:52:43 10° N 21:58:48 34° WNW 22:04:16 10° SW visible
01 May 9.7 20:57:16 10° NNE 21:04:10 89° WNW 21:10:10 10° SSW visible
01 May 12.5 22:44:52 10° NNW 22:47:58 14° WNW 22:50:55 10° W visible
02 May 11.2 21:47:48 10° N 21:53:52 36° WNW 21:59:18 10° SW visible
03 May 9.6 20:52:24 10° NNE 20:59:10 85° ESE 21:05:04 10° SSW visible
03 May 12.4 22:39:47 10° NNW 22:43:05 14° WNW 22:46:12 10° W visible
04 May 11.1 21:42:52 10° N 21:48:55 38° WNW 21:54:20 10° SW visible
